Location: Glash�tten
(50.2140°N, 8.4010°E)
Time: 00:41:40
(UTC+02:00)

Envisat - Visible Passes

Search period start: 27 March 2023 00:00
Search period end: 06 April 2023 00:00
Orbit: 763 x 765 km, 98.2° (Epoch: 26 March)

Date Brightness Start Highest point End Pass type
(mag) Time Alt. Az. Time Alt. Az. Time Alt. Az.
27 Mar 3.6 05:17:24 10° NNE 05:22:25 57° E 05:27:24 10° S visible
28 Mar 4.8 04:40:42 10° NE 04:45:06 29° E 04:49:28 10° SSE visible
28 Mar 3.3 06:19:26 10° N 06:24:17 46° WNW 06:29:07 10° SW visible
29 Mar 5.6 04:04:50 10° NE 04:07:34 14° E 04:10:17 10° ESE visible
29 Mar 3.0 05:42:10 10° NNE 05:47:17 89° WNW 05:52:22 10° SSW visible
30 Mar 4.0 05:05:12 10° NNE 05:10:06 45° E 05:14:58 10° S visible
31 Mar 5.1 04:28:41 10° NE 04:32:42 23° E 04:36:43 10° SE visible
31 Mar 3.1 06:07:04 10° N 06:12:04 57° WNW 06:17:01 10° SSW visible
01 Apr 5.8 03:53:35 10° ENE 03:55:05 11° E 03:56:36 10° ESE visible
01 Apr 3.2 05:29:54 10° NNE 05:35:00 74° ESE 05:40:04 10° S visible
02 Apr 4.4 04:53:02 10° NNE 04:57:44 36° E 05:02:25 10° SSE visible
03 Apr 5.4 04:16:45 10° NE 04:20:17 19° E 04:23:47 10° SE visible
03 Apr 3.0 05:54:44 10° N 05:59:49 71° WNW 06:04:51 10° SSW visible
04 Apr 3.6 05:17:39 10° NNE 05:22:41 59° E 05:27:41 10° S visible
05 Apr 4.8 04:40:56 10° NNE 04:45:21 29° E 04:49:45 10° SSE visible
05 Apr 3.4 06:19:41 10° N 06:24:32 45° WNW 06:29:20 10° SW visible
